Location: downtown San Diego
(32.7310°N, 117.1990°W)
Time: 19:03:38
(UTC-07:00)

Cosmos 1726 - Pass Details

Date: 14 June 2018
Orbit: 484 x 503 km, 82.5° (Epoch: 17 August)

Event Time Altitude Azimuth Distance (km) Brightness Sun altitude
Rises 23:16:28 0° 353° (N) 2,596 6.8 -29.7°
Reaches altitude 10° 23:18:35 10° 354° (N) 1,711 5.7 -29.9°
Enters shadow 23:20:03 23° 354° (N) 1,119 4.5 -30.1°
